Trinity Center, CA

6:18 PM PST on February 09, 2016 (GMT -0800)
Trinity Center

Weather History for KO86 - October, 2012

Change the Weather History Date:

Wednesday, October 10, 2012

  Actual Average (KMHS) Record (KMHS)
Temperature  
Mean Temperature 62 °F 54 °F  
Max Temperature 80 °F 69 °F 88 °F (1936)
Min Temperature 44 °F 38 °F 24 °F (1985)
Degree Days  
Heating Degree Days 3 11  
Month to date heating degree days 100  
Since 1 July heating degree days 337  
Cooling Degree Days 0 0  
Month to date cooling degree days 0  
Year to date cooling degree days 287  
Growing Degree Days 12 (Base 50)    
Moisture  
Dew Point 38 °F    
Average Humidity 54    
Maximum Humidity 81    
Minimum Humidity 17    
Precipitation  
Precipitation 0.00 in 0.05 in 1.63 in (1962)
Month to date precipitation 0.37  
Year to date precipitation 28.37  
Sea Level Pressure  
Sea Level Pressure 29.99 in    
Wind  
Wind Speed 3 mph ()    
Max Wind Speed 8 mph    
Max Gust Speed -    
Visibility 10.0 miles    
Events      
T = Trace of Precipitation, MM = Missing Value Source: Averaged Metar Reports

Daily Weather History Graph

Daily Weather History Graph

Search for Another Location

Airport or City:

Trip Planner

Search our weather history database for the weather conditions in past years. The results will help you decide how hot, cold, wet, or windy it might be!

Date:

Astronomy

Oct. 10, 2012 Rise Set
Actual Time 7:17 AM PDT 6:37 PM PDT
Civil Twilight 6:49 AM PDT 7:04 PM PDT
Nautical Twilight 6:18 AM PDT 7:36 PM PDT
Astronomical Twilight 5:46 AM PDT 8:08 PM PDT
Moon 1:57 AM PDT 3:44 PM PDT
Length of Visible Light 12h 14m
Length of Day
11h 19m
Waning Crescent, 26% of the Moon is Illuminated
Oct 10
Waning Crescent
Oct 15
New
Oct 21
First Quarter
Oct 29
Full
Nov 6
Last Quarter

Hourly Weather History & Observations

Time (PDT) Temp. Windchill Dew Point Humidity Pressure Visibility Wind Dir Wind Speed Gust Speed Precip Events Conditions
12:10 AM 46.4 °F 43.5 °F 37.4 °F 71% 30.05 in 10.0 mi WNW 5.8 mph - N/A   Clear
12:30 AM 46.4 °F 45.2 °F 37.4 °F 71% 30.05 in 10.0 mi West 3.5 mph - N/A   Clear
12:50 AM 44.6 °F 43.1 °F 37.4 °F 76% 30.04 in 10.0 mi WNW 3.5 mph - N/A   Clear
1:10 AM 44.6 °F 42.2 °F 37.4 °F 76% 30.05 in 10.0 mi West 4.6 mph - N/A   Clear
1:30 AM 44.6 °F 41.4 °F 37.4 °F 76% 30.05 in 10.0 mi West 5.8 mph - N/A   Clear
1:50 AM 44.6 °F 43.1 °F 37.4 °F 76% 30.05 in 10.0 mi West 3.5 mph - N/A   Clear
2:10 AM 44.6 °F 41.4 °F 37.4 °F 76% 30.05 in 10.0 mi West 5.8 mph - N/A   Clear
2:30 AM 44.6 °F 43.1 °F 37.4 °F 76% 30.05 in 10.0 mi West 3.5 mph - N/A   Clear
2:50 AM 44.6 °F 42.2 °F 37.4 °F 76% 30.05 in 10.0 mi West 4.6 mph - N/A   Clear
3:10 AM 44.6 °F - 37.4 °F 76% 30.05 in 10.0 mi Calm Calm - N/A   Clear
3:30 AM 44.6 °F 43.1 °F 37.4 °F 76% 30.05 in 10.0 mi West 3.5 mph - N/A   Clear
3:50 AM 44.6 °F 42.2 °F 37.4 °F 76% 30.05 in 10.0 mi West 4.6 mph - N/A   Clear
4:10 AM 44.6 °F 43.1 °F 37.4 °F 76% 30.05 in 10.0 mi West 3.5 mph - N/A   Clear
4:30 AM 44.6 °F 43.1 °F 37.4 °F 76% 30.05 in 10.0 mi West 3.5 mph - N/A   Clear
4:50 AM 44.6 °F 43.1 °F 37.4 °F 76% 30.04 in 10.0 mi West 3.5 mph - N/A   Clear
5:10 AM 44.6 °F - 37.4 °F 76% 30.05 in 10.0 mi Calm Calm - N/A   Clear
5:30 AM 46.4 °F 44.3 °F 39.2 °F 76% 30.05 in 10.0 mi West 4.6 mph - N/A   Clear
5:50 AM 46.4 °F - 39.2 °F 76% 30.05 in 10.0 mi Calm Calm - N/A   Clear
6:10 AM 46.4 °F 45.2 °F 39.2 °F 76% 30.05 in 10.0 mi WNW 3.5 mph - N/A   Clear
6:30 AM 46.4 °F - 39.2 °F 76% 30.05 in 10.0 mi Calm Calm - N/A   Clear
6:50 AM 46.4 °F 45.2 °F 39.2 °F 76% 30.05 in 10.0 mi WNW 3.5 mph - N/A   Clear
7:10 AM 46.4 °F - 39.2 °F 76% 30.05 in 10.0 mi Calm Calm - N/A   Clear
7:30 AM 46.4 °F 45.2 °F 39.2 °F 76% 30.05 in 10.0 mi West 3.5 mph - N/A   Clear
7:50 AM 46.4 °F - 39.2 °F 76% 30.04 in 10.0 mi Calm Calm - N/A   Clear
8:10 AM 46.4 °F 44.3 °F 39.2 °F 76% 30.04 in 10.0 mi West 4.6 mph - N/A   Clear
8:30 AM 46.4 °F - 41.0 °F 81% 30.05 in 10.0 mi Calm Calm - N/A   Clear
8:50 AM 48.2 °F - 41.0 °F 76% 30.04 in 10.0 mi Calm Calm - N/A   Clear
9:10 AM 50.0 °F - 41.0 °F 71% 30.04 in 10.0 mi Calm Calm - N/A   Clear
9:30 AM 50.0 °F - 41.0 °F 71% 30.04 in 10.0 mi Calm Calm - N/A   Clear
9:50 AM 53.6 °F - 41.0 °F 62% 30.04 in 10.0 mi Calm Calm - N/A   Clear
10:10 AM 55.4 °F - 41.0 °F 58% 30.03 in 10.0 mi ENE 3.5 mph - N/A   Clear
10:30 AM 57.2 °F - 39.2 °F 51% 30.03 in 10.0 mi Calm Calm - N/A   Clear
10:50 AM 57.2 °F - 39.2 °F 51% 30.02 in 10.0 mi Calm Calm - N/A   Clear
11:10 AM 60.8 °F - 39.2 °F 45% 30.02 in 10.0 mi ENE 3.5 mph - N/A   Clear
11:30 AM 62.6 °F - 41.0 °F 45% 30.01 in 10.0 mi ENE 3.5 mph - N/A   Clear
11:50 AM 62.6 °F - 42.8 °F 48% 30.00 in 10.0 mi Calm Calm - N/A   Clear
12:10 PM 64.4 °F - 41.0 °F 42% 29.99 in 10.0 mi Calm Calm - N/A   Clear
12:30 PM 66.2 °F - 39.2 °F 37% 29.98 in 10.0 mi Calm Calm - N/A   Clear
12:50 PM 68.0 °F - 41.0 °F 37% 29.97 in 10.0 mi NE 3.5 mph - N/A   Clear
1:10 PM 71.6 °F - 41.0 °F 33% 29.96 in 10.0 mi East 3.5 mph - N/A   Clear
1:30 PM 71.6 °F - 42.8 °F 35% 29.94 in 10.0 mi Calm Calm - N/A   Clear
1:50 PM 73.4 °F - 41.0 °F 31% 29.93 in 10.0 mi ESE 3.5 mph - N/A   Clear
2:10 PM 75.2 °F - 41.0 °F 29% 29.92 in 10.0 mi Calm Calm - N/A   Clear
2:30 PM 75.2 °F - 39.2 °F 27% 29.91 in 10.0 mi Calm Calm - N/A   Clear
2:50 PM 77.0 °F - 37.4 °F 24% 29.90 in 10.0 mi SSE 4.6 mph - N/A   Clear
3:10 PM 80.6 °F - 32.0 °F 17% 29.90 in 10.0 mi Calm Calm - N/A   Clear
3:30 PM 80.6 °F - 32.0 °F 17% 29.89 in 10.0 mi Calm Calm - N/A   Clear
3:50 PM 80.6 °F - 33.8 °F 18% 29.89 in 10.0 mi South 4.6 mph - N/A   Clear
4:10 PM 80.6 °F - 32.0 °F 17% 29.89 in 10.0 mi SSE 5.8 mph - N/A   Clear
4:30 PM 80.6 °F - 32.0 °F 17% 29.88 in 10.0 mi SSW 4.6 mph - N/A   Clear
4:50 PM 80.6 °F - 32.0 °F 17% 29.88 in 10.0 mi South 8.1 mph - N/A   Clear
5:10 PM 78.8 °F - 32.0 °F 18% 29.88 in 10.0 mi South 4.6 mph - N/A   Clear
5:50 PM 75.2 °F - 35.6 °F 24% 29.88 in 10.0 mi Calm Calm - N/A   Clear
6:10 PM 73.4 °F - 35.6 °F 25% 29.88 in 10.0 mi Calm Calm - N/A   Clear
6:30 PM 68.0 °F - 39.2 °F 35% 29.89 in 10.0 mi NNW 5.8 mph - N/A   Clear
6:50 PM 66.2 °F - 39.2 °F 37% 29.89 in 10.0 mi WNW 5.8 mph - N/A   Clear
7:10 PM 66.2 °F - 37.4 °F 35% 29.91 in 10.0 mi Calm Calm - N/A   Clear
7:30 PM 62.6 °F - 37.4 °F 39% 29.91 in 10.0 mi West 5.8 mph - N/A   Clear
7:50 PM 62.6 °F - 35.6 °F 37% 29.91 in 10.0 mi West 5.8 mph - N/A   Clear
8:10 PM 59.0 °F - 37.4 °F 45% 29.92 in 10.0 mi West 3.5 mph - N/A   Clear
8:30 PM 57.2 °F - 37.4 °F 48% 29.92 in 10.0 mi Calm Calm - N/A   Clear
8:50 PM 55.4 °F - 37.4 °F 51% 29.93 in 10.0 mi West 4.6 mph - N/A   Clear
9:10 PM 55.4 °F - 35.6 °F 47% 29.94 in 10.0 mi West 3.5 mph - N/A   Clear
9:30 PM 53.6 °F - 35.6 °F 51% 29.95 in 10.0 mi West 4.6 mph - N/A   Clear
9:50 PM 53.6 °F - 35.6 °F 51% 29.96 in 10.0 mi West 4.6 mph - N/A   Clear
10:10 PM 53.6 °F - 35.6 °F 51% 29.97 in 10.0 mi West 5.8 mph - N/A   Clear
10:30 PM 53.6 °F - 35.6 °F 51% 29.97 in 10.0 mi West 5.8 mph - N/A   Clear
11:30 PM 50.0 °F - 35.6 °F 58% 29.99 in 10.0 mi West 3.5 mph - N/A   Clear
11:50 PM 50.0 °F - 35.6 °F 58% 29.99 in 10.0 mi West 3.5 mph - N/A   Clear